[[{"header":{"parameterUnit":"m.s-1","parameterCategory":1,"la1":30.2991,"la2":30.254,"lo1":-89.0895,"lo2":-89.0444,"dy":0.0017,"dx":0.0017,"nx":28,"ny":28,"refTime":"2024-08-27T03:00:00:Z","depth":0,"parameterNumber":2,"parameterNumberName":"U-component_of_WINDS"},"data":[0,0,0,0,0,0,0,0,0,0,0,0,0,0,0,0,0,0,0,0,0,0,0,0,0,0,0,0,0,0,0,0,0,0,0,0,0,0,0,0,0,0,0,0,0,0,0,0,0,0,0,0,0,0,0,0,0,0,0.813,0.813,0,0.8158,0.8159,0.8159,0.8183,0.8183,0.8183,0.8183,0.821,0.821,0.8211,0,0,0,0,0,0,0,0,0,0,0,0,0,0.8093,0.8094,0.813,0.813,0.813,0.8158,0.8159,0.8159,0.8183,0.8183,0.8183,0.8184,0.821,0.821,0.8211,0,0,0,0,0,0,0,0,0,0,0,0,0,0.8114,0.8094,0.813,0.8146,0.8147,0.8158,0.8159,0.8159,0.8183,0.8183,0.8183,0.8184,0.821,0.821,0.8211,0.8207,0,0,0.8213,0.8213,0,0,0,0,0,0,0,0,0.8113,0.8115,0.8143,0.8145,0.8147,0.8167,0.8155,0.8175,0.8182,0.8169,0.8183,0.8184,0.8195,0.8197,0.8201,0.8208,0.821,0.8213,0.8213,0.8214,0.8214,0,0,0,0,0,0,0,0.8111,0.8114,0.8141,0.8143,0.8145,0.8151,0.8154,0.8159,0.8179,0.817,0.8172,0.8175,0.8196,0.8201,0.8202,0.821,0.8213,0.8214,0.8214,0.8214,0.8215,0.8215,0,0,0,0,0,0,0.8108,0.8113,0.814,0.8142,0.813,0.8151,0.8155,0.816,0.818,0.8183,0.8175,0.8176,0.8199,0.8201,0.8203,0.82,0.8214,0.8214,0.8215,0.8215,0.8215,0.8214,0,0,0,0,0,0,0.8107,0.811,0.8139,0.8128,0.8132,0.8151,0.8157,0.8161,0.8165,0.8183,0.8187,0.8176,0.82,0.8202,0.8206,0.8201,0.8215,0.8215,0.8216,0.8215,0.8215,0.8193,0,0,0,0,0,0,0.8106,0.811,0.8109,0.8128,0.8132,0.8142,0.8157,0.8161,0.8167,0.8169,0.8185,0.8188,0.82,0.8205,0.8207,0.8202,0.8216,0.8216,0.8215,0.8215,0.8194,0.8192,0.819,0,0,0,0,0,0.8104,0.8101,0.8109,0.8112,0.8132,0.8142,0.8144,0.8159,0.8166,0.8165,0.8177,0.8187,0.8202,0.8205,0.8207,0.8203,0.8217,0.8216,0.8215,0.8195,0.8192,0.819,0,0,0,0,0,0,0.808,0.8104,0.8113,0.8115,0.8126,0.8146,0.8145,0.8156,0.8164,0.8165,0.8183,0.8186,0.8188,0.8196,0.82,0.82,0.8211,0.821,0.8195,0.8192,0.819,0.8187,0.8216,0,0,0,0,0,0.8075,0.8082,0.8102,0.8102,0.8108,0.8125,0.813,0.8141,0.8152,0.8157,0.8169,0.8179,0.8185,0.8189,0.8197,0.8196,0.8199,0.8194,0.8192,0.819,0.8189,0.8188,0.8186,0.8211,0.8211,0.8211,0,0,0.8065,0.8079,0.8081,0.8098,0.8108,0.8113,0.8129,0.8134,0.8138,0.8157,0.8162,0.8171,0.8183,0.8185,0.8186,0.8191,0.8182,0.8188,0.8187,0.8187,0.8187,0.8184,0.8182,0.8211,0.8211,0.8211,0,0,0.8049,0.806,0.8062,0.8071,0.8087,0.8098,0.8099,0.8117,0.8123,0.8129,0.8143,0.8148,0.8159,0.8167,0.8173,0.816,0.817,0.8162,0.8149,0.8149,0.8147,0.8145,0.814,0.8138,0.8161,0.8161,0.8161,0,0.8033,0.8043,0.8061,0.8065,0.8072,0.8091,0.8092,0.81,0.8116,0.812,0.8126,0.8141,0.8151,0.8154,0.8151,0.8155,0.8155,0.816,0.8146,0.8144,0.8143,0.8138,0.8136,0.816,0.816,0.816,0.816,0,0.8023,0.803,0.8029,0.8045,0.8052,0.8054,0.8072,0.8076,0.8087,0.8097,0.8102,0.8115,0.8124,0.8126,0.8136,0.8131,0.8134,0.8143,0.8153,0.8139,0.8135,0.8133,0.8158,0.8159,0.8159,0.816,0,0,0.7991,0.8018,0.8017,0.8025,0.8043,0.8048,0.8051,0.8062,0.8065,0.8076,0.8078,0.8088,0.8096,0.8103,0.8114,0.8113,0.8102,0.8122,0.8123,0.8117,0.8096,0.8088,0.8085,0.8109,0.8109,0.8108,0.8094,0,0.7977,0.7985,0.8002,0.8004,0.801,0.8028,0.8031,0.8042,0.8053,0.8058,0.807,0.8076,0.8087,0.8091,0.8092,0.8103,0.8097,0.8104,0.811,0.811,0.8105,0.8083,0.8075,0.8061,0.8093,0.8092,0.8092,0,0.7961,0.7972,0.7975,0.7993,0.7996,0.7999,0.801,0.8015,0.8028,0.8036,0.8043,0.8055,0.8059,0.807,0.8075,0.8079,0.8082,0.8088,0.8088,0.8088,0.8099,0.8081,0.8057,0.8054,0.809,0.809,0.809,0,0.7936,0.7951,0.7955,0.7961,0.7983,0.7984,0.7992,0.8006,0.8011,0.8021,0.8024,0.8034,0.8038,0.8045,0.8059,0.8066,0.8062,0.8074,0.8067,0.8067,0.8065,0.8064,0.8039,0.8069,0.8069,0.8069,0.8069,0,0.7918,0.7919,0.7944,0.7946,0.7948,0.7967,0.7967,0.7978,0.7989,0.7993,0.801,0.8013,0.8032,0.8037,0.8049,0.805,0.8053,0.8058,0.8061,0.8056,0.8055,0.8057,0.8058,0.8069,0.8069,0.8069,0.8069,0,0.789,0.7907,0.7912,0.7932,0.7938,0.7938,0.7954,0.7957,0.7969,0.7973,0.7975,0.7994,0.8001,0.8016,0.8027,0.8034,0.8033,0.8039,0.8028,0.803,0.8022,0.8022,0.7996,0.7993,0.8026,0.8026,0.8026,0,0.7876,0.7878,0.7898,0.7903,0.7911,0.7918,0.7924,0.7942,0.7947,0.7962,0.7962,0.7971,0.7978,0.7988,0.8002,0.801,0.8015,0.8006,0.8017,0.8011,0.8014,0.8013,0.8013,0.8003,0.8002,0.8002,0.8002,0,0.785,0.7859,0.7867,0.7878,0.7885,0.7895,0.7905,0.7907,0.7928,0.7933,0.7941,0.7947,0.7958,0.7966,0.7976,0.7984,0.7996,0.7999,0.7997,0.7991,0.7985,0.7987,0.8021,0.7999,0.7999,0.7999,0.7999,0.7999,0.7828,0.783,0.7845,0.7853,0.7864,0.7873,0.7876,0.7889,0.7896,0.7907,0.7918,0.7924,0.7937,0.7952,0.796,0.7964,0.797,0.7969,0.7968,0.7967,0.7964,0.7986,0.7966,0.7967,0.7967,0.7967,0.7967,0,0.7802,0.7813,0.782,0.7835,0.7841,0.7854,0.7866,0.787,0.7876,0.7887,0.7895,0.7903,0.7911,0.7926,0.7934,0.7935,0.7941,0.7937,0.7936,0.7937,0.7959,0.7959,0.7932,0.7932,0.7932,0.7932,0.7932,0.7932,0.7789,0.7792,0.7803,0.7811,0.7822,0.7829,0.7835,0.7843,0.7853,0.7862,0.7869,0.7879,0.7891,0.7901,0.7908,0.7912,0.7914,0.7908,0.7913,0.7933,0.7936,0.7939,0.7939,0.7909,0.7909,0.7891,0.7891,0.7891]},{"header":{"parameterUnit":"m.s-1","parameterCategory":1,"la1":30.2991,"la2":30.254,"lo1":-89.0895,"lo2":-89.0444,"dy":0.0017,"dx":0.0017,"nx":28,"ny":28,"refTime":"2024-08-27T03:00:00:Z","depth":0,"parameterNumber":3,"parameterNumberName":"V-component_of_WINDS"},"data":[0,0,0,0,0,0,0,0,0,0,0,0,0,0,0,0,0,0,0,0,0,0,0,0,0,0,0,0,0,0,0,0,0,0,0,0,0,0,0,0,0,0,0,0,0,0,0,0,0,0,0,0,0,0,0,0,0,0,-0.5462,-0.5462,0,-0.5497,-0.5498,-0.5498,-0.5501,-0.55,-0.55,-0.5499,-0.5537,-0.5539,-0.554,0,0,0,0,0,0,0,0,0,0,0,0,0,-0.5398,-0.5399,-0.5462,-0.5462,-0.5463,-0.5497,-0.5498,-0.5498,-0.5501,-0.55,-0.55,-0.5499,-0.5537,-0.5539,-0.554,0,0,0,0,0,0,0,0,0,0,0,0,0,-0.5429,-0.5399,-0.5462,-0.5468,-0.5469,-0.5497,-0.5498,-0.5499,-0.5501,-0.55,-0.55,-0.5499,-0.5536,-0.5538,-0.554,-0.5566,0,0,-0.5547,-0.5548,0,0,0,0,0,0,0,0,-0.5427,-0.5431,-0.5467,-0.5468,-0.5469,-0.5494,-0.5489,-0.5521,-0.5501,-0.5489,-0.5499,-0.5499,-0.5524,-0.5527,-0.5535,-0.5567,-0.5569,-0.5547,-0.5548,-0.5549,-0.555,0,0,0,0,0,0,0,-0.5425,-0.5429,-0.5476,-0.5467,-0.5468,-0.547,-0.5473,-0.5495,-0.5509,-0.549,-0.549,-0.5494,-0.5524,-0.5533,-0.5536,-0.557,-0.5547,-0.5549,-0.555,-0.5551,-0.5626,-0.5626,0,0,0,0,0,0,-0.5421,-0.5428,-0.5475,-0.5477,-0.5446,-0.5471,-0.5475,-0.5486,-0.5509,-0.5512,-0.5495,-0.5494,-0.5529,-0.5533,-0.5537,-0.5568,-0.5549,-0.5551,-0.5552,-0.5625,-0.5626,-0.5627,0,0,0,0,0,0,-0.542,-0.5425,-0.5473,-0.5452,-0.5459,-0.5473,-0.5485,-0.5487,-0.5496,-0.5513,-0.5515,-0.5501,-0.5529,-0.5534,-0.5559,-0.557,-0.5552,-0.5554,-0.5624,-0.5625,-0.5626,-0.5631,0,0,0,0,0,0,-0.5418,-0.5425,-0.5434,-0.5453,-0.546,-0.5494,-0.5486,-0.5489,-0.55,-0.5499,-0.5519,-0.5522,-0.5529,-0.5555,-0.5561,-0.5572,-0.5556,-0.5623,-0.5625,-0.5626,-0.563,-0.5632,-0.5634,0,0,0,0,0,-0.5416,-0.5434,-0.5434,-0.544,-0.5471,-0.5494,-0.5498,-0.5506,-0.55,-0.551,-0.5521,-0.5521,-0.5568,-0.5558,-0.5564,-0.5576,-0.5623,-0.5624,-0.5626,-0.5629,-0.5632,-0.5634,0,0,0,0,0,0,-0.5416,-0.5436,-0.5437,-0.5462,-0.5476,-0.5495,-0.5507,-0.5508,-0.5525,-0.5524,-0.5533,-0.5538,-0.5562,-0.5572,-0.5561,-0.5602,-0.5595,-0.5598,-0.5595,-0.5598,-0.56,-0.5597,-0.5557,0,0,0,0,0,-0.5419,-0.5436,-0.5453,-0.5473,-0.548,-0.5492,-0.5503,-0.5507,-0.5523,-0.5529,-0.5541,-0.5557,-0.5575,-0.5587,-0.5605,-0.5631,-0.5636,-0.5643,-0.5645,-0.5647,-0.5649,-0.5665,-0.5668,-0.5632,-0.5632,-0.5632,0,0,-0.5426,-0.5439,-0.5449,-0.5473,-0.5485,-0.5503,-0.5497,-0.5516,-0.5529,-0.5532,-0.5556,-0.5566,-0.5584,-0.561,-0.5622,-0.5618,-0.566,-0.5649,-0.565,-0.5651,-0.5667,-0.567,-0.5673,-0.5633,-0.5633,-0.5633,0,0,-0.5446,-0.5458,-0.5476,-0.5488,-0.5506,-0.5514,-0.5518,-0.5537,-0.5543,-0.5567,-0.557,-0.5586,-0.5617,-0.563,-0.5641,-0.5668,-0.5669,-0.5673,-0.5684,-0.5699,-0.5702,-0.5704,-0.5714,-0.5718,-0.5676,-0.5676,-0.5676,0,-0.5452,-0.5478,-0.5485,-0.5504,-0.5515,-0.5518,-0.5538,-0.5549,-0.5572,-0.558,-0.5576,-0.5615,-0.5628,-0.5657,-0.5663,-0.5672,-0.5678,-0.5671,-0.5701,-0.5703,-0.5706,-0.5715,-0.5719,-0.5676,-0.5676,-0.5676,-0.5676,0,-0.5484,-0.5502,-0.5515,-0.5537,-0.555,-0.5568,-0.5579,-0.5592,-0.5596,-0.5604,-0.5629,-0.5645,-0.5666,-0.5673,-0.5677,-0.5703,-0.5701,-0.5699,-0.5691,-0.5709,-0.5719,-0.5722,-0.5677,-0.5676,-0.5676,-0.5676,0,0,-0.5505,-0.5532,-0.5536,-0.5546,-0.5567,-0.5581,-0.5601,-0.5621,-0.5632,-0.5648,-0.5665,-0.5691,-0.569,-0.5702,-0.5707,-0.5721,-0.5742,-0.5717,-0.5718,-0.5721,-0.5772,-0.5774,-0.5778,-0.5743,-0.5743,-0.5744,-0.5771,0,-0.5528,-0.5562,-0.557,-0.56,-0.5617,-0.5621,-0.5638,-0.5653,-0.5662,-0.5678,-0.5689,-0.5707,-0.5704,-0.5711,-0.5724,-0.5736,-0.5752,-0.5734,-0.5759,-0.576,-0.5754,-0.5782,-0.5784,-0.5808,-0.5774,-0.5775,-0.5775,0,-0.5559,-0.5576,-0.5607,-0.5626,-0.5633,-0.5648,-0.5668,-0.5684,-0.5701,-0.5707,-0.5721,-0.5725,-0.5747,-0.5738,-0.5768,-0.5756,-0.5767,-0.5775,-0.5776,-0.5778,-0.5769,-0.5786,-0.5816,-0.582,-0.5781,-0.5781,-0.578,0,-0.5572,-0.5602,-0.5625,-0.5633,-0.5656,-0.5667,-0.5677,-0.5693,-0.5705,-0.5723,-0.5731,-0.5751,-0.5762,-0.5778,-0.5788,-0.5781,-0.5817,-0.581,-0.5823,-0.5823,-0.583,-0.583,-0.5863,-0.5837,-0.5837,-0.5837,-0.5837,0,-0.5596,-0.5615,-0.5631,-0.5645,-0.5666,-0.5676,-0.5697,-0.5707,-0.5722,-0.5739,-0.5744,-0.576,-0.5772,-0.579,-0.5798,-0.5822,-0.5827,-0.5833,-0.5835,-0.5832,-0.5832,-0.5839,-0.5838,-0.5838,-0.5838,-0.5838,-0.5838,0,-0.5614,-0.5625,-0.565,-0.5669,-0.5675,-0.569,-0.5707,-0.5721,-0.5731,-0.5752,-0.5757,-0.5773,-0.5794,-0.5806,-0.5832,-0.5838,-0.5865,-0.5866,-0.5859,-0.586,-0.5872,-0.5871,-0.5912,-0.5918,-0.5888,-0.5888,-0.5889,0,-0.5629,-0.5643,-0.5665,-0.5676,-0.5686,-0.5704,-0.5717,-0.5727,-0.574,-0.5761,-0.5773,-0.5794,-0.5812,-0.5846,-0.586,-0.588,-0.5882,-0.5895,-0.5885,-0.5883,-0.5883,-0.5882,-0.5883,-0.5897,-0.5897,-0.5897,-0.5897,0,-0.5654,-0.5659,-0.5676,-0.5696,-0.571,-0.5726,-0.5742,-0.5751,-0.5765,-0.5779,-0.58,-0.5814,-0.5841,-0.5863,-0.5885,-0.5896,-0.5899,-0.59,-0.5905,-0.5902,-0.5898,-0.5901,-0.5863,-0.5899,-0.5899,-0.5899,-0.5899,-0.5899,-0.5671,-0.5685,-0.5702,-0.5721,-0.5734,-0.5749,-0.5764,-0.5775,-0.5793,-0.5816,-0.5821,-0.5844,-0.5862,-0.5892,-0.5904,-0.5922,-0.592,-0.5926,-0.5928,-0.5929,-0.593,-0.5895,-0.5926,-0.5926,-0.5926,-0.5926,-0.5926,0,-0.5697,-0.5708,-0.5726,-0.5748,-0.5764,-0.5765,-0.5783,-0.5796,-0.5816,-0.5832,-0.585,-0.5875,-0.5896,-0.5912,-0.5934,-0.5946,-0.5948,-0.5951,-0.595,-0.5953,-0.593,-0.5925,-0.5949,-0.5949,-0.5949,-0.5949,-0.5949,-0.5949,-0.5712,-0.5735,-0.5742,-0.5773,-0.5784,-0.5806,-0.5816,-0.5831,-0.5844,-0.5872,-0.5889,-0.5899,-0.5916,-0.5939,-0.5959,-0.5963,-0.5971,-0.5974,-0.5979,-0.5957,-0.5955,-0.5952,-0.5947,-0.5976,-0.5976,-0.6,-0.6,-0.6]}]]